| time (UTC) | temp F | wind direction | speed MPH | gust MPH | rain 1hr in | rain 24hr in | rain mn in | humidity % | barometer mb |
| 20260505114213 | 80 | 0 | 0.0 | 0.0 | 0.00 | 0.00 | 0.00 | 31 | 949.0 |
| 20260505113612 | 80 | 0 | 0.0 | 0.0 | 0.00 | 0.00 | 0.00 | 30 | 949.0 |
| 20260505113012 | 80 | 0 | 0.0 | 0.0 | 0.00 | 0.00 | 0.00 | 31 | 949.0 |
| 20260505112411 | 79 | 0 | 0.0 | 0.0 | 0.00 | 0.00 | 0.00 | 31 | 949.0 |
| 20260505111810 | 79 | 0 | 0.0 | 0.0 | 0.00 | 0.00 | 0.00 | 31 | 949.0 |
| 20260505111209 | 78 | 0 | 0.0 | 0.0 | 0.00 | 0.00 | 0.00 | 32 | 949.0 |
| 20260505110608 | 78 | 0 | 0.0 | 0.0 | 0.00 | 0.00 | 0.00 | 33 | 949.0 |
| 20260505101802 | 75 | 0 | 0.0 | 0.0 | 0.00 | 0.00 | 0.00 | 36 | 950.0 |
| 20260505101201 | 76 | 0 | 0.0 | 0.0 | 0.00 | 0.00 | 0.00 | 34 | 950.0 |
| 20260505100600 | 75 | 0 | 0.0 | 0.0 | 0.00 | 0.00 | 0.00 | 35 | 950.0 |
| 20260505100000 | 73 | 0 | 0.0 | 0.0 | 0.00 | 0.00 | 0.00 | 37 | 950.0 |
| 20260505095359 | 73 | 0 | 0.0 | 0.0 | 0.00 | 0.00 | 0.00 | 36 | 950.0 |
| 20260505094758 | 72 | 0 | 0.0 | 0.0 | 0.00 | 0.00 | 0.00 | 37 | 950.0 |
| 20260505094157 | 72 | 0 | 0.0 | 0.0 | 0.00 | 0.00 | 0.00 | 38 | 950.0 |
| 20260505093557 | 72 | 0 | 0.0 | 0.0 | 0.00 | 0.00 | 0.00 | 38 | 950.0 |
| 20260505092956 | 72 | 0 | 0.0 | 0.0 | 0.00 | 0.00 | 0.00 | 40 | 950.0 |
| 20260505092355 | 71 | 0 | 0.0 | 0.0 | 0.00 | 0.00 | 0.00 | 40 | 950.0 |
| 20260505091754 | 71 | 0 | 0.0 | 0.0 | 0.00 | 0.00 | 0.00 | 42 | 951.0 |
| 20260505091153 | 71 | 0 | 0.0 | 0.0 | 0.00 | 0.00 | 0.00 | 43 | 951.0 |
| 20260505090553 | 71 | 0 | 0.0 | 0.0 | 0.00 | 0.00 | 0.00 | 44 | 951.0 |
| 20260505085952 | 71 | 0 | 0.0 | 0.0 | 0.00 | 0.00 | 0.00 | 45 | 951.0 |
| 20260505085351 | 70 | 0 | 0.0 | 0.0 | 0.00 | 0.00 | 0.00 | 45 | 951.0 |
| 20260505084750 | 70 | 0 | 0.0 | 0.0 | 0.00 | 0.00 | 0.00 | 47 | 951.0 |
| 20260505084149 | 70 | 0 | 0.0 | 0.0 | 0.00 | 0.00 | 0.00 | 48 | 951.0 |
| 20260505083549 | 69 | 0 | 0.0 | 0.0 | 0.00 | 0.00 | 0.00 | 48 | 951.0 |
| 20260505082948 | 69 | 0 | 0.0 | 0.0 | 0.00 | 0.00 | 0.00 | 49 | 951.0 |
| 20260505082347 | 68 | 0 | 0.0 | 0.0 | 0.00 | 0.00 | 0.00 | 51 | 951.0 |
| 20260505081746 | 68 | 0 | 0.0 | 0.0 | 0.00 | 0.00 | 0.00 | 51 | 951.0 |
| 20260505081146 | 67 | 0 | 0.0 | 0.0 | 0.00 | 0.00 | 0.00 | 53 | 951.0 |
| 20260505080545 | 68 | 0 | 0.0 | 0.0 | 0.00 | 0.00 | 0.00 | 52 | 951.0 |
| 20260505075343 | 67 | 0 | 0.0 | 0.0 | 0.00 | 0.00 | 0.00 | 55 | 951.0 |
| 20260505074742 | 67 | 0 | 0.0 | 0.0 | 0.00 | 0.00 | 0.00 | 56 | 951.0 |
| 20260505074142 | 66 | 0 | 0.0 | 0.0 | 0.00 | 0.00 | 0.00 | 58 | 952.0 |
| 20260505073541 | 66 | 0 | 0.0 | 0.0 | 0.00 | 0.00 | 0.00 | 58 | 952.0 |
| 20260505072940 | 66 | 0 | 0.0 | 0.0 | 0.00 | 0.00 | 0.00 | 58 | 952.0 |
| 20260505072339 | 66 | 0 | 0.0 | 0.0 | 0.00 | 0.00 | 0.00 | 59 | 952.0 |
| 20260505071739 | 65 | 0 | 0.0 | 0.0 | 0.00 | 0.00 | 0.00 | 62 | 952.0 |
| 20260505071138 | 64 | 0 | 0.0 | 0.0 | 0.00 | 0.00 | 0.00 | 63 | 952.0 |
| 20260505070537 | 63 | 0 | 0.0 | 0.0 | 0.00 | 0.00 | 0.00 | 64 | 952.0 |
| 20260505065936 | 64 | 0 | 0.0 | 0.0 | 0.00 | 0.00 | 0.00 | 63 | 952.0 |
| 20260505065335 | 64 | 0 | 0.0 | 0.0 | 0.00 | 0.00 | 0.00 | 62 | 952.0 |
| 20260505064735 | 64 | 0 | 0.0 | 0.0 | 0.00 | 0.00 | 0.00 | 62 | 952.0 |
| 20260505064134 | 64 | 0 | 0.0 | 0.0 | 0.00 | 0.00 | 0.00 | 64 | 952.0 |
| 20260505063533 | 63 | 0 | 0.0 | 0.0 | 0.00 | 0.00 | 0.00 | 65 | 952.0 |
| 20260505062932 | 63 | 0 | 0.0 | 0.0 | 0.00 | 0.00 | 0.00 | 67 | 952.0 |
| 20260505062332 | 63 | 0 | 0.0 | 0.0 | 0.00 | 0.00 | 0.00 | 66 | 952.0 |
| 20260505061731 | 62 | 0 | 0.0 | 0.0 | 0.00 | 0.00 | 0.00 | 68 | 952.0 |
| 20260505061130 | 62 | 0 | 0.0 | 0.0 | 0.00 | 0.00 | 0.00 | 68 | 952.0 |
| 20260505060529 | 62 | 0 | 0.0 | 0.0 | 0.00 | 0.00 | 0.00 | 68 | 952.0 |
| 20260505055928 | 62 | 0 | 0.0 | 0.0 | 0.00 | 0.00 | 0.00 | 69 | 952.0 |
| 20260505055328 | 61 | 0 | 0.0 | 0.0 | 0.00 | 0.00 | 0.00 | 70 | 952.0 |
| 20260505054727 | 61 | 0 | 0.0 | 0.0 | 0.00 | 0.00 | 0.00 | 71 | 952.0 |
| 20260505054126 | 61 | 0 | 0.0 | 0.0 | 0.00 | 0.00 | 0.00 | 71 | 952.0 |
| 20260505053525 | 61 | 0 | 0.0 | 0.0 | 0.00 | 0.00 | 0.00 | 71 | 952.0 |
| 20260505052925 | 60 | 0 | 0.0 | 0.0 | 0.00 | 0.00 | 0.00 | 72 | 952.0 |
| 20260505052324 | 60 | 0 | 0.0 | 0.0 | 0.00 | 0.00 | 0.00 | 72 | 952.0 |
| 20260505051723 | 60 | 0 | 0.0 | 0.0 | 0.00 | 0.00 | 0.00 | 72 | 952.0 |
| 20260505051122 | 60 | 0 | 0.0 | 0.0 | 0.00 | 0.00 | 0.00 | 74 | 952.0 |
| 20260505050522 | 60 | 0 | 0.0 | 0.0 | 0.00 | 0.00 | 0.00 | 75 | 952.0 |
| 20260505041715 | 59 | 0 | 0.0 | 0.0 | 0.00 | 0.00 | 0.00 | 76 | 952.0 |
| 20260505041115 | 58 | 0 | 0.0 | 0.0 | 0.00 | 0.00 | 0.00 | 76 | 952.0 |
| 20260505040514 | 59 | 0 | 0.0 | 0.0 | 0.00 | 0.00 | 0.00 | 73 | 952.0 |
| 20260505035913 | 59 | 0 | 0.0 | 0.0 | 0.00 | 0.00 | 0.00 | 72 | 952.0 |
| 20260505035312 | 59 | 0 | 0.0 | 0.0 | 0.00 | 0.00 | 0.00 | 72 | 952.0 |
| 20260505034712 | 59 | 0 | 0.0 | 0.0 | 0.00 | 0.00 | 0.00 | 73 | 952.0 |
| 20260505034111 | 59 | 0 | 0.0 | 0.0 | 0.00 | 0.00 | 0.00 | 71 | 952.0 |
| 20260505033510 | 59 | 0 | 0.0 | 0.0 | 0.00 | 0.00 | 0.00 | 72 | 952.0 |
| 20260505032909 | 59 | 0 | 0.0 | 0.0 | 0.00 | 0.00 | 0.00 | 72 | 952.0 |
| 20260505032308 | 60 | 0 | 0.0 | 0.0 | 0.00 | 0.00 | 0.00 | 72 | 952.0 |
| 20260505031708 | 59 | 0 | 0.0 | 0.0 | 0.00 | 0.00 | 0.00 | 74 | 952.0 |
| 20260505031107 | 60 | 0 | 0.0 | 0.0 | 0.00 | 0.00 | 0.00 | 73 | 952.0 |
| 20260505030506 | 60 | 0 | 0.0 | 0.0 | 0.00 | 0.00 | 0.00 | 72 | 952.0 |
| 20260505025905 | 60 | 0 | 0.0 | 0.0 | 0.00 | 0.00 | 0.00 | 71 | 952.0 |
| 20260505025305 | 60 | 0 | 0.0 | 0.0 | 0.00 | 0.00 | 0.00 | 71 | 952.0 |
| 20260505024704 | 61 | 0 | 0.0 | 0.0 | 0.00 | 0.00 | 0.00 | 70 | 952.0 |
| 20260505024103 | 60 | 0 | 0.0 | 0.0 | 0.00 | 0.00 | 0.00 | 72 | 952.0 |
| 20260505023502 | 61 | 0 | 0.0 | 0.0 | 0.00 | 0.00 | 0.00 | 71 | 953.0 |
| 20260505022902 | 59 | 0 | 0.0 | 0.0 | 0.00 | 0.00 | 0.00 | 72 | 953.0 |
| 20260505022301 | 60 | 0 | 0.0 | 0.0 | 0.00 | 0.00 | 0.00 | 70 | 953.0 |
| 20260505021700 | 62 | 0 | 0.0 | 0.0 | 0.00 | 0.00 | 0.00 | 68 | 953.0 |
| 20260505021059 | 62 | 0 | 0.0 | 0.0 | 0.00 | 0.00 | 0.00 | 68 | 953.0 |
| 20260505020458 | 62 | 0 | 0.0 | 0.0 | 0.00 | 0.00 | 0.00 | 68 | 953.0 |
| 20260505015858 | 62 | 0 | 0.0 | 0.0 | 0.00 | 0.00 | 0.00 | 69 | 953.0 |
| 20260505015257 | 62 | 0 | 0.0 | 0.0 | 0.00 | 0.00 | 0.00 | 69 | 953.0 |
| 20260505014656 | 62 | 0 | 0.0 | 0.0 | 0.00 | 0.00 | 0.00 | 69 | 953.0 |
| 20260505014055 | 62 | 0 | 0.0 | 0.0 | 0.00 | 0.00 | 0.00 | 70 | 953.0 |
| 20260505013455 | 60 | 0 | 0.0 | 0.0 | 0.00 | 0.00 | 0.00 | 72 | 953.0 |
| 20260505012854 | 60 | 0 | 0.0 | 0.0 | 0.00 | 0.00 | 0.00 | 73 | 953.0 |
| 20260505012253 | 60 | 0 | 0.0 | 0.0 | 0.00 | 0.00 | 0.00 | 71 | 953.0 |
| 20260505011652 | 61 | 0 | 0.0 | 0.0 | 0.00 | 0.00 | 0.00 | 68 | 953.0 |
| 20260505011051 | 63 | 0 | 0.0 | 0.0 | 0.00 | 0.00 | 0.00 | 64 | 953.0 |
| 20260505010451 | 63 | 0 | 0.0 | 0.0 | 0.00 | 0.00 | 0.00 | 64 | 953.0 |
| 20260505005850 | 64 | 0 | 0.0 | 0.0 | 0.00 | 0.00 | 0.00 | 63 | 953.0 |
| 20260505005249 | 64 | 0 | 0.0 | 0.0 | 0.00 | 0.00 | 0.00 | 62 | 953.0 |
| 20260505004648 | 64 | 0 | 0.0 | 0.0 | 0.00 | 0.00 | 0.00 | 62 | 953.0 |
| 20260505004048 | 63 | 0 | 0.0 | 0.0 | 0.00 | 0.00 | 0.00 | 63 | 953.0 |
| 20260505003447 | 64 | 0 | 0.0 | 0.0 | 0.00 | 0.00 | 0.00 | 60 | 953.0 |
| 20260505002846 | 64 | 0 | 0.0 | 0.0 | 0.00 | 0.00 | 0.00 | 61 | 953.0 |
| 20260505002245 | 64 | 0 | 0.0 | 0.0 | 0.00 | 0.00 | 0.00 | 60 | 953.0 |
| 20260505001644 | 64 | 0 | 0.0 | 0.0 | 0.00 | 0.00 | 0.00 | 60 | 953.0 |
| 20260505001044 | 64 | 0 | 0.0 | 0.0 | 0.00 | 0.00 | 0.00 | 60 | 953.0 |
| 20260505000443 | 64 | 0 | 0.0 | 0.0 | 0.00 | 0.00 | 0.00 | 61 | 953.0 |
| 20260504235842 | 64 | 0 | 0.0 | 0.0 | 0.00 | 0.00 | 0.00 | 61 | 953.0 |
| 20260504235241 | 64 | 0 | 0.0 | 0.0 | 0.00 | 0.00 | 0.00 | 61 | 953.0 |
| 20260504234641 | 64 | 0 | 0.0 | 0.0 | 0.00 | 0.00 | 0.00 | 61 | 953.0 |
| 20260504234040 | 64 | 0 | 0.0 | 0.0 | 0.00 | 0.00 | 0.00 | 59 | 953.0 |
| 20260504233439 | 63 | 0 | 0.0 | 0.0 | 0.00 | 0.00 | 0.00 | 61 | 953.0 |
| 20260504232838 | 64 | 0 | 0.0 | 0.0 | 0.00 | 0.00 | 0.00 | 60 | 953.0 |
| 20260504232238 | 65 | 0 | 0.0 | 0.0 | 0.00 | 0.00 | 0.00 | 59 | 953.0 |
| 20260504231637 | 65 | 0 | 0.0 | 0.0 | 0.00 | 0.00 | 0.00 | 59 | 953.0 |
| 20260504231036 | 65 | 0 | 0.0 | 0.0 | 0.00 | 0.00 | 0.00 | 59 | 953.0 |
| 20260504230435 | 65 | 0 | 0.0 | 0.0 | 0.00 | 0.00 | 0.00 | 59 | 954.0 |
| 20260504225834 | 65 | 0 | 0.0 | 0.0 | 0.00 | 0.00 | 0.00 | 58 | 954.0 |
| 20260504225234 | 66 | 0 | 0.0 | 0.0 | 0.00 | 0.00 | 0.00 | 55 | 954.0 |
| 20260504224633 | 66 | 0 | 0.0 | 0.0 | 0.00 | 0.00 | 0.00 | 55 | 954.0 |
| 20260504224032 | 67 | 0 | 0.0 | 0.0 | 0.00 | 0.00 | 0.00 | 54 | 954.0 |
| 20260504223431 | 66 | 0 | 0.0 | 0.0 | 0.00 | 0.00 | 0.00 | 56 | 954.0 |
| 20260504222830 | 66 | 0 | 0.0 | 0.0 | 0.00 | 0.00 | 0.00 | 55 | 954.0 |
| 20260504222230 | 67 | 0 | 0.0 | 0.0 | 0.00 | 0.00 | 0.00 | 53 | 954.0 |
| 20260504221629 | 67 | 0 | 0.0 | 0.0 | 0.00 | 0.00 | 0.00 | 53 | 954.0 |
| 20260504221028 | 67 | 0 | 0.0 | 0.0 | 0.00 | 0.00 | 0.00 | 53 | 954.0 |
| 20260504220427 | 67 | 0 | 0.0 | 0.0 | 0.00 | 0.00 | 0.00 | 54 | 954.0 |
| 20260504215827 | 67 | 0 | 0.0 | 0.0 | 0.00 | 0.00 | 0.00 | 53 | 954.0 |
| 20260504215226 | 67 | 0 | 0.0 | 0.0 | 0.00 | 0.00 | 0.00 | 52 | 954.0 |
| 20260504214625 | 67 | 0 | 0.0 | 0.0 | 0.00 | 0.00 | 0.00 | 53 | 954.0 |
| 20260504214024 | 67 | 0 | 0.0 | 0.0 | 0.00 | 0.00 | 0.00 | 54 | 954.0 |
| 20260504213423 | 68 | 0 | 0.0 | 0.0 | 0.00 | 0.00 | 0.00 | 52 | 954.0 |
| 20260504212823 | 68 | 0 | 0.0 | 0.0 | 0.00 | 0.00 | 0.00 | 51 | 954.0 |
| 20260504212222 | 68 | 0 | 0.0 | 0.0 | 0.00 | 0.00 | 0.00 | 51 | 954.0 |
| 20260504211621 | 68 | 0 | 0.0 | 0.0 | 0.00 | 0.00 | 0.00 | 51 | 955.0 |
| 20260504211020 | 68 | 0 | 0.0 | 0.0 | 0.00 | 0.00 | 0.00 | 51 | 955.0 |
| 20260504210420 | 69 | 0 | 0.0 | 0.0 | 0.00 | 0.00 | 0.00 | 50 | 955.0 |
| 20260504205819 | 69 | 0 | 0.0 | 0.0 | 0.00 | 0.00 | 0.00 | 49 | 955.0 |
| 20260504205218 | 68 | 0 | 0.0 | 0.0 | 0.00 | 0.00 | 0.00 | 50 | 955.0 |
| 20260504204617 | 69 | 0 | 0.0 | 0.0 | 0.00 | 0.00 | 0.00 | 47 | 955.0 |
| 20260504204016 | 69 | 0 | 0.0 | 0.0 | 0.00 | 0.00 | 0.00 | 45 | 955.0 |
| 20260504202815 | 69 | 0 | 0.0 | 0.0 | 0.00 | 0.00 | 0.00 | 43 | 955.0 |
| 20260504202214 | 69 | 0 | 0.0 | 0.0 | 0.00 | 0.00 | 0.00 | 42 | 955.0 |
| 20260504201613 | 69 | 0 | 0.0 | 0.0 | 0.00 | 0.00 | 0.00 | 41 | 955.0 |
| 20260504201013 | 70 | 0 | 0.0 | 0.0 | 0.00 | 0.00 | 0.00 | 39 | 955.0 |
| 20260504195811 | 70 | 0 | 0.0 | 0.0 | 0.00 | 0.00 | 0.00 | 40 | 954.0 |
| 20260504195210 | 70 | 0 | 0.0 | 0.0 | 0.00 | 0.00 | 0.00 | 40 | 954.0 |
| 20260504194009 | 71 | 0 | 0.0 | 0.0 | 0.00 | 0.00 | 0.00 | 40 | 954.0 |
| 20260504193408 | 71 | 0 | 0.0 | 0.0 | 0.00 | 0.00 | 0.00 | 40 | 954.0 |
| 20260504192807 | 72 | 0 | 0.0 | 0.0 | 0.00 | 0.00 | 0.00 | 39 | 954.0 |
| 20260504192206 | 72 | 0 | 0.0 | 0.0 | 0.00 | 0.00 | 0.00 | 38 | 954.0 |
| 20260504191605 | 72 | 0 | 0.0 | 0.0 | 0.00 | 0.00 | 0.00 | 37 | 953.0 |
| 20260504191005 | 73 | 0 | 0.0 | 0.0 | 0.00 | 0.00 | 0.00 | 37 | 953.0 |
| 20260504190404 | 73 | 0 | 0.0 | 0.0 | 0.00 | 0.00 | 0.00 | 37 | 953.0 |
| 20260504185803 | 73 | 0 | 0.0 | 0.0 | 0.00 | 0.00 | 0.00 | 36 | 953.0 |
| 20260504185202 | 74 | 0 | 0.0 | 0.0 | 0.00 | 0.00 | 0.00 | 35 | 953.0 |
| 20260504184602 | 74 | 0 | 0.0 | 0.0 | 0.00 | 0.00 | 0.00 | 36 | 953.0 |
| 20260504184001 | 74 | 0 | 0.0 | 0.0 | 0.00 | 0.00 | 0.00 | 35 | 953.0 |
| 20260504183400 | 74 | 0 | 0.0 | 0.0 | 0.00 | 0.00 | 0.00 | 34 | 953.0 |
| 20260504182759 | 75 | 0 | 0.0 | 0.0 | 0.00 | 0.00 | 0.00 | 34 | 953.0 |
| 20260504182158 | 75 | 0 | 0.0 | 0.0 | 0.00 | 0.00 | 0.00 | 34 | 953.0 |
| 20260504181558 | 75 | 0 | 0.0 | 0.0 | 0.00 | 0.00 | 0.00 | 34 | 953.0 |
| 20260504180957 | 75 | 0 | 0.0 | 0.0 | 0.00 | 0.00 | 0.00 | 33 | 953.0 |
| 20260504180356 | 76 | 0 | 0.0 | 0.0 | 0.00 | 0.00 | 0.00 | 33 | 953.0 |
| 20260504175755 | 76 | 0 | 0.0 | 0.0 | 0.00 | 0.00 | 0.00 | 32 | 953.0 |
| 20260504175155 | 76 | 0 | 0.0 | 0.0 | 0.00 | 0.00 | 0.00 | 32 | 953.0 |
| 20260504174554 | 77 | 0 | 0.0 | 0.0 | 0.00 | 0.00 | 0.00 | 32 | 953.0 |
| 20260504173953 | 77 | 0 | 0.0 | 0.0 | 0.00 | 0.00 | 0.00 | 31 | 953.0 |
| 20260504173352 | 77 | 0 | 0.0 | 0.0 | 0.00 | 0.00 | 0.00 | 31 | 953.0 |
| 20260504172751 | 77 | 0 | 0.0 | 0.0 | 0.00 | 0.00 | 0.00 | 31 | 953.0 |
| 20260504172151 | 77 | 0 | 0.0 | 0.0 | 0.00 | 0.00 | 0.00 | 29 | 953.0 |
| 20260504171550 | 77 | 0 | 0.0 | 0.0 | 0.00 | 0.00 | 0.00 | 29 | 953.0 |
| 20260504170949 | 78 | 0 | 0.0 | 0.0 | 0.00 | 0.00 | 0.00 | 29 | 953.0 |
| 20260504170348 | 78 | 0 | 0.0 | 0.0 | 0.00 | 0.00 | 0.00 | 29 | 953.0 |
| 20260504160340 | 79 | 0 | 0.0 | 0.0 | 0.00 | 0.00 | 0.00 | 29 | 953.0 |
| 20260504150933 | 79 | 0 | 0.0 | 0.0 | 0.00 | 0.00 | 0.00 | 28 | 954.0 |
| 20260504150332 | 79 | 0 | 0.0 | 0.0 | 0.00 | 0.00 | 0.00 | 28 | 954.0 |
| 20260504140925 | 82 | 0 | 0.0 | 0.0 | 0.00 | 0.00 | 0.00 | 25 | 954.0 |
| 20260504140324 | 83 | 0 | 0.0 | 0.0 | 0.00 | 0.00 | 0.00 | 26 | 954.0 |
| 20260504130316 | 89 | 0 | 0.0 | 0.0 | 0.00 | 0.00 | 0.00 | 22 | 954.0 |
| 20260504120308 | 81 | 0 | 0.0 | 0.0 | 0.00 | 0.00 | 0.00 | 27 | 955.0 |